Temp
21 19 19 19 19 19 18 18 18 18 18 18 18 18 19 19 19 19 18 19 18 19 19 19 19 19 18 20 21 20 21 22 23 23 24 24 23 22 22 21 21 21 21
19 19 19 19 18 19 19 20 19 18 18 18 18 18 18 18 18 19 19 19 19 19 20 19 18 18 19 20 20 20 20 21 21 22 23 22 22 21 21 20 21 22 22
20 21 21 21 20 21 20 20 19 18 18 18 18 18 18 18 18 18 19 19 19 18 18 19 19 19 18 18 20 19 19 20 20 20 21 21 22 22 21 20 20 20 21
20 21 20 20 20 19 19 18 18 18 17 17 17 17 17 17 18 18 18 19 19 19 18 18 19 19 19 19 19 19 19 19 20 19 19 20 21 22 22 22 21 21 20
19 18 18 18 17 17 17 17 17 17 17 17 17 17 17 17 18 18 18 18 18 19 18 18 19 20 20 19 19 19 18 18 19 20 19 19 21 22 22 22 22 22 21
17 18 18 17 16 16 16 16 16 16 16 16 16 16 17 17 17 18 18 17 18 17 18 18 18 19 19 19 19 19 19 18 19 19 20 21 21 21 21 21 22 21 21
17 17 17 16 16 16 15 15 15 15 15 15 16 16 16 16 16 17 18 18 17 17 17 17 17 18 18 18 18 18 17 18 18 19 19 21 21 21 21 21 21 21 20
17 17 16 16 16 16 15 15 15 15 15 15 15 15 15 16 16 16 17 16 17 17 17 16 16 17 17 17 17 18 18 18 18 18 18 19 20 20 19 20 20 19 19
17 16 16 16 15 15 15 15 15 15 15 15 15 15 15 15 15 16 16 15 15 17 17 16 15 16 17 16 16 17 17 17 18 18 18 19 19 19 18 18 18 18 19
17 16 15 15 14 14 14 14 14 14 14 14 14 14 14 14 15 15 15 15 15 15 15 16 16 16 16 16 16 16 17 18 18 18 17 18 18 18 18 18 18 18 19
15 15 14 14 13 13 13 13 13 14 14 14 14 14 14 14 14 14 14 14 15 16 16 17 17 16 15 15 15 16 16 17 18 18 17 18 18 18 18 18 18 18 19
14 13 13 13 12 13 12 12 13 13 13 13 13 14 14 15 15 15 15 15 15 15 15 16 16 16 15 15 15 15 16 16 17 16 17 17 18 18 18 18 18 18 18
12 12 11 12 12 11 11 12 12 13 13 13 13 14 15 16 17 17 17 16 16 16 15 15 15 15 15 15 15 15 16 16 16 16 18 17 17 18 19 19 18 18 18
11 10 11 11 11 11 11 12 12 13 13 14 13 14 14 14 16 17 17 17 17 16 16 15 15 15 15 15 14 14 15 16 15 16 16 17 17 17 18 19 18 17 18
10 9 10 10 10 11 11 11 12 12 12 12 12 12 13 13 14 15 15 15 14 14 13 14 14 14 14 14 14 15 15 15 15 15 16 16 17 17 17 18 18 18 18
9 9 9 9 9 9 10 11 12 12 12 11 11 11 11 11 12 13 14 14 14 14 14 13 14 14 14 14 14 15 15 15 16 16 16 16 17 17 17 18 18 18 18
7 8 8 8 8 8 9 10 10 11 11 11 11 11 11 11 12 11 11 12 13 12 12 12 13 13 13 13 14 15 15 16 16 16 17 17 16 17 17 17 17 17 17
6 6 6 7 7 7 8 8 9 9 10 9 10 10 10 10 11 12 11 10 11 11 12 12 12 13 13 14 14 15 15 16 16 16 16 16 16 16 17 17 17 17 17
5 5 5 5 5 6 6 7 7 8 8 8 9 9 10 10 11 12 11 10 10 12 13 13 13 13 14 14 14 14 15 15 16 16 16 16 16 17 17 17 18 18 17
4 4 4 4 5 5 5 6 6 7 7 7 8 8 10 10 11 11 11 12 12 11 13 14 14 14 14 15 15 15 14 15 15 16 16 16 17 17 17 17 17 18 17
4 4 4 4 4 4 4 5 5 6 6 7 7 8 9 9 10 11 11 12 12 12 13 14 15 14 15 15 15 15 14 14 15 16 16 17 17 18 17 17 17 17 16
4 4 3 3 2 3 3 4 4 5 5 6 7 9 9 9 10 10 11 12 13 13 13 14 15 15 16 15 15 16 15 15 15 16 16 16 17 17 17 17 16 16 17
3 2 2 1 2 1 2 2 3 4 5 6 8 9 10 10 10 11 11 12 13 14 13 15 14 16 16 16 17 17 16 17 17 16 16 16 16 16 16 16 16 15 15
2 1 1 1 0 0 0 1 2 4 5 6 7 9 9 10 11 11 12 12 12 13 14 14 14 15 16 16 17 17 16 15 15 15 15 15 15 16 16 15 15 15 15
1 0 -0 -0 -0 -1 -1 0 1 3 5 6 7 8 9 9 10 11 11 12 13 14 14 14 15 16 16 16 16 16 16 15 14 13 14 14 14 14 15 14 14 15 15
-0 -1 -2 -2 -2 -2 -2 -1 1 3 4 6 7 8 8 9 10 10 11 12 12 13 14 14 15 16 16 15 15 14 14 13 13 13 13 13 14 14 14 14 14 14 15
Height
1541 1542 1542 1543 1545 1546 1546 1546 1545 1545 1544 1542 1541 1540 1540 1541 1541 1542 1543 1543 1543 1545 1547 1548 1548 1550 1550 1548 1548 1549 1549 1551 1552 1551 1551 1553 1553 1555 1558 1559 1560 1559 1557
1540 1541 1542 1543 1543 1545 1545 1546 1545 1544 1542 1540 1538 1537 1536 1536 1536 1536 1536 1537 1535 1535 1537 1540 1542 1543 1542 1544 1544 1544 1546 1547 1548 1548 1549 1550 1551 1551 1552 1554 1555 1555 1555
1541 1542 1542 1543 1543 1544 1544 1543 1542 1541 1539 1537 1535 1533 1530 1529 1529 1529 1528 1529 1529 1530 1530 1529 1532 1534 1535 1537 1538 1540 1541 1542 1543 1546 1546 1547 1548 1547 1547 1548 1550 1550 1550
1540 1541 1541 1541 1541 1540 1539 1538 1537 1536 1535 1533 1531 1529 1527 1526 1523 1521 1521 1521 1521 1521 1522 1523 1523 1525 1528 1530 1532 1534 1536 1538 1539 1539 1540 1542 1543 1543 1543 1544 1544 1545 1545
1538 1539 1538 1537 1536 1534 1534 1533 1532 1531 1529 1528 1526 1524 1523 1521 1520 1517 1515 1515 1514 1514 1515 1514 1514 1515 1518 1521 1524 1526 1529 1531 1534 1534 1534 1536 1536 1537 1537 1538 1537 1539 1540
1536 1535 1534 1532 1530 1529 1527 1526 1525 1524 1522 1521 1519 1518 1517 1516 1514 1511 1510 1508 1507 1507 1509 1509 1510 1509 1512 1513 1515 1517 1521 1523 1524 1528 1529 1528 1529 1530 1532 1533 1532 1533 1534
1532 1531 1529 1527 1525 1523 1521 1519 1517 1516 1515 1514 1513 1512 1510 1508 1507 1504 1503 1502 1500 1499 1500 1501 1502 1504 1504 1507 1508 1510 1512 1515 1516 1519 1520 1521 1523 1524 1526 1526 1527 1528 1528
1528 1526 1524 1522 1520 1517 1515 1512 1511 1509 1508 1506 1505 1504 1502 1501 1500 1498 1496 1495 1493 1492 1493 1493 1495 1497 1498 1500 1500 1501 1503 1505 1507 1510 1511 1512 1516 1517 1518 1519 1522 1522 1522
1522 1520 1518 1516 1513 1511 1508 1505 1503 1501 1499 1498 1498 1496 1495 1493 1492 1491 1490 1489 1488 1485 1486 1487 1487 1489 1491 1493 1493 1494 1496 1497 1498 1500 1502 1503 1506 1509 1512 1514 1513 1517 1515
1516 1514 1511 1509 1506 1502 1499 1497 1495 1493 1491 1490 1488 1488 1486 1485 1484 1483 1483 1482 1482 1481 1479 1479 1480 1481 1482 1485 1487 1488 1487 1488 1491 1491 1492 1493 1496 1498 1502 1504 1506 1507 1509
1509 1506 1504 1501 1498 1494 1490 1488 1486 1484 1482 1481 1479 1478 1477 1476 1474 1474 1474 1474 1473 1474 1474 1473 1475 1475 1474 1475 1476 1477 1477 1479 1480 1480 1480 1482 1486 1488 1491 1493 1496 1499 1501
1502 1499 1496 1493 1490 1487 1482 1479 1477 1474 1473 1471 1470 1469 1468 1466 1464 1463 1464 1464 1465 1465 1465 1465 1466 1466 1466 1466 1465 1467 1468 1470 1470 1466 1461 1472 1475 1479 1482 1485 1485 1488 1491
1494 1490 1488 1485 1482 1478 1474 1471 1469 1467 1465 1463 1462 1461 1460 1459 1457 1456 1455 1455 1455 1455 1455 1456 1455 1455 1457 1457 1459 1461 1462 1462 1462 1461 1462 1465 1467 1471 1475 1477 1476 1479 1483
1485 1483 1481 1477 1474 1471 1468 1466 1463 1461 1458 1457 1456 1454 1452 1451 1450 1450 1450 1448 1447 1446 1446 1446 1445 1446 1447 1450 1452 1454 1454 1453 1453 1454 1457 1458 1462 1464 1466 1468 1470 1467 1475
1478 1476 1472 1470 1467 1464 1460 1458 1456 1453 1453 1450 1448 1446 1445 1444 1444 1441 1440 1439 1440 1439 1438 1439 1439 1437 1439 1440 1442 1443 1446 1446 1446 1447 1449 1450 1452 1456 1457 1458 1462 1465 1468
1470 1468 1465 1462 1459 1457 1454 1450 1448 1446 1443 1441 1439 1438 1436 1434 1432 1432 1431 1431 1432 1431 1430 1431 1431 1432 1432 1433 1434 1435 1436 1437 1437 1438 1439 1442 1444 1448 1449 1450 1453 1456 1459
1463 1460 1457 1454 1451 1449 1446 1443 1438 1435 1433 1431 1429 1426 1425 1423 1421 1420 1420 1419 1419 1421 1421 1421 1423 1424 1424 1424 1425 1427 1427 1429 1429 1431 1431 1433 1437 1441 1442 1442 1445 1448 1450
1456 1452 1449 1445 1443 1440 1437 1434 1431 1427 1422 1419 1418 1416 1413 1411 1409 1408 1408 1407 1407 1408 1409 1412 1413 1415 1415 1416 1416 1418 1419 1419 1419 1421 1424 1426 1428 1432 1434 1435 1438 1439 1441
1450 1445 1442 1438 1434 1431 1428 1425 1422 1419 1415 1411 1407 1405 1403 1401 1399 1397 1396 1396 1397 1399 1400 1401 1402 1404 1405 1407 1407 1407 1410 1412 1412 1414 1416 1418 1421 1424 1426 1427 1428 1430 1432
1446 1441 1436 1431 1426 1422 1418 1414 1411 1408 1405 1401 1398 1395 1394 1393 1390 1389 1386 1385 1386 1387 1390 1390 1391 1393 1395 1396 1397 1399 1400 1402 1404 1407 1409 1411 1413 1415 1418 1418 1419 1420 1421
1439 1434 1429 1424 1419 1414 1409 1405 1401 1398 1394 1391 1388 1386 1385 1384 1381 1380 1379 1378 1378 1378 1379 1381 1382 1382 1384 1386 1388 1390 1392 1394 1396 1399 1400 1402 1404 1406 1407 1408 1409 1411 1413
1433 1426 1421 1416 1410 1404 1399 1395 1392 1388 1385 1383 1379 1376 1374 1373 1371 1369 1369 1369 1369 1369 1370 1372 1373 1374 1375 1377 1378 1381 1382 1384 1387 1389 1391 1393 1395 1396 1397 1398 1400 1402 1405
1425 1418 1412 1406 1401 1395 1390 1386 1382 1379 1376 1374 1371 1368 1365 1363 1362 1360 1359 1360 1360 1361 1359 1362 1363 1366 1367 1369 1370 1371 1373 1375 1377 1380 1382 1383 1385 1386 1388 1389 1391 1392 1394
1417 1410 1403 1397 1391 1386 1381 1377 1373 1370 1368 1366 1364 1362 1358 1355 1352 1351 1351 1351 1351 1352 1353 1354 1354 1355 1357 1359 1360 1363 1363 1362 1368 1372 1373 1373 1375 1376 1378 1378 1380 1382 1385
1411 1403 1395 1388 1382 1377 1372 1368 1365 1362 1360 1359 1357 1354 1351 1347 1339 1344 1343 1344 1344 1345 1345 1346 1346 1347 1349 1350 1351 1353 1356 1358 1359 1361 1362 1363 1364 1365 1366 1369 1370 1372 1374
1406 1397 1388 1380 1374 1369 1365 1361 1358 1355 1353 1352 1349 1348 1345 1342 1340 1339 1338 1337 1337 1337 1337 1337 1338 1339 1340 1340 1342 1343 1344 1346 1349 1350 1352 1354 1354 1355 1358 1361 1363 1364 1367
Wind_Speed
8 10 10 5 6 6 8 9 11 12 12 13 15 17 20 19 19 20 21 21 21 23 23 21 26 23 20 22 21 16 15 15 15 14 10 7 12 17 18 11 9 11 13
6 5 3 2 2 4 7 8 10 11 11 13 15 17 18 18 19 21 24 22 25 28 29 26 28 24 28 27 26 25 21 20 17 19 18 15 9 10 12 14 15 15 15
4 0 1 1 3 6 8 9 10 11 11 12 13 17 18 19 21 24 26 28 28 26 27 27 29 30 32 27 30 27 25 27 22 21 20 18 17 17 15 12 15 17 17
2 2 4 6 8 10 12 13 13 14 14 14 13 14 15 18 20 21 25 27 30 29 27 28 28 30 31 34 32 31 29 28 28 29 27 23 22 21 20 18 19 19 18
5 7 9 11 12 14 15 15 16 17 17 16 16 17 16 16 17 22 24 26 28 27 26 28 31 32 31 33 35 36 33 31 30 26 25 26 27 24 23 20 20 18 20
8 10 11 13 14 16 17 18 20 21 21 20 19 18 20 18 20 26 26 28 33 39 33 33 31 33 32 31 34 37 37 37 36 32 30 29 28 25 25 26 16 16 20
12 13 13 14 16 18 20 22 23 24 23 23 23 22 22 23 24 27 27 24 25 31 32 32 24 25 28 33 34 38 41 41 38 38 37 31 26 27 28 26 25 23 21
16 16 17 18 21 23 24 24 25 25 25 25 24 24 25 26 24 28 29 29 25 26 31 33 31 29 33 29 30 32 34 39 46 44 44 43 42 34 25 28 30 28 25
19 20 21 24 26 27 30 30 30 29 29 29 27 27 27 29 28 28 30 30 25 26 28 32 35 34 31 26 27 29 29 34 32 39 46 43 43 38 32 31 30 24 24
24 25 24 26 31 32 32 33 33 32 33 31 30 29 28 30 30 29 31 28 27 26 26 26 27 25 27 33 35 34 35 36 36 34 37 35 39 40 38 36 31 28 26
26 27 28 31 33 33 33 33 33 34 34 34 35 32 32 34 34 34 34 30 29 29 27 25 24 27 29 32 35 31 38 37 35 39 34 33 30 32 38 40 40 37 32
27 28 29 31 33 31 32 32 33 33 34 34 34 34 29 30 31 29 26 27 31 33 31 28 27 29 31 28 25 24 28 29 32 41 27 28 33 32 30 29 34 34 38
30 30 29 31 30 30 31 33 29 27 28 29 28 30 30 29 27 26 27 27 26 27 26 30 33 31 31 27 28 21 24 29 28 25 36 35 32 29 26 26 32 31 29
25 22 26 28 26 28 27 25 24 25 26 27 28 29 28 27 28 24 22 20 23 27 27 29 31 33 32 31 29 29 27 29 28 28 26 34 26 27 32 32 27 31 29
29 27 29 29 30 28 28 26 25 27 27 29 32 30 26 28 26 31 24 20 18 15 19 16 18 18 20 23 23 28 26 23 24 26 29 30 29 31 30 27 32 32 32
28 29 29 29 30 30 30 33 31 32 33 33 33 34 34 37 40 39 38 36 31 28 30 25 24 21 22 24 26 27 27 28 30 29 29 27 30 29 32 31 28 33 35
31 31 32 32 32 30 34 34 36 32 31 32 34 37 36 37 36 38 37 39 41 38 36 32 29 28 28 27 26 25 26 25 27 25 28 29 27 27 25 23 33 33 35
29 30 31 32 29 32 31 32 35 29 34 36 31 30 31 36 34 33 31 28 31 33 38 33 31 30 30 31 30 28 26 26 28 26 27 27 30 28 24 27 30 31 35
27 26 25 27 28 30 31 31 30 33 32 36 35 31 30 32 31 28 28 30 29 27 28 30 28 30 31 32 32 32 28 24 22 25 27 26 28 27 28 29 27 30 32
24 26 27 28 30 30 30 31 32 33 33 35 34 32 28 28 29 26 28 28 30 29 29 32 32 32 32 32 30 30 28 27 26 24 27 30 31 30 30 30 29 30 31
33 33 31 29 28 30 30 32 32 33 32 31 32 33 31 32 32 26 27 29 31 25 27 30 32 33 32 32 32 29 32 28 25 28 30 32 30 29 29 28 26 30 31
33 36 29 25 28 29 30 31 30 32 30 30 32 30 28 29 30 31 28 27 27 25 28 27 30 31 31 33 32 31 28 28 26 27 30 29 32 33 31 28 31 30 30
36 29 30 33 32 34 30 27 29 30 30 30 25 25 25 26 29 26 26 26 26 25 24 27 28 27 28 29 30 29 30 28 27 27 28 28 30 32 31 32 34 32 31
27 32 33 31 33 34 31 27 29 27 26 27 25 26 26 22 28 25 25 25 26 25 25 27 29 27 27 28 28 29 27 23 28 28 29 32 33 34 34 37 37 37 32
32 33 34 35 33 32 27 26 26 23 23 23 24 26 26 24 25 16 20 21 21 22 27 30 30 28 29 31 29 25 26 28 29 26 26 29 31 33 34 33 34 33 31
33 34 33 30 28 26 24 23 23 21 21 21 21 23 24 23 21 23 22 21 23 27 25 25 27 28 26 24 26 30 32 31 32 32 29 32 33 32 32 33 30 29 29
Wind_Direction
186 198 208 216 222 249 256 277 288 293 285 282 277 270 260 256 250 249 240 228 242 238 227 239 250 242 244 249 247 238 250 255 256 263 261 276 255 259 252 263 268 257 261
158 139 144 200 241 262 290 292 294 292 295 294 288 276 268 263 260 253 247 241 234 238 242 233 238 239 243 243 242 240 233 232 257 254 247 256 261 263 281 259 253 252 270
117 90 240 236 288 285 286 283 281 290 296 296 292 296 291 276 262 253 250 241 236 235 242 245 239 239 237 237 243 237 240 229 236 243 247 247 250 248 252 255 261 263 260
98 289 278 285 281 278 280 282 284 286 287 292 291 287 285 290 282 263 252 248 240 238 238 243 250 244 242 245 238 241 236 238 243 238 238 240 245 244 243 247 256 263 250
296 293 286 277 275 279 279 276 276 276 281 280 284 285 285 283 282 278 268 254 243 243 243 244 243 250 247 245 246 244 238 235 235 239 241 240 242 245 242 241 240 254 256
284 286 284 282 284 285 286 283 276 280 282 279 279 276 276 278 272 270 274 270 259 254 254 255 253 251 250 251 248 245 242 238 232 233 242 240 239 237 246 248 247 250 254
285 288 289 285 286 289 291 290 285 281 281 278 275 274 272 268 272 274 279 282 271 264 256 259 258 256 255 255 256 248 245 243 244 241 234 236 243 241 238 242 243 243 250
288 290 290 290 292 294 294 293 290 282 277 277 280 278 275 275 270 277 280 285 279 263 254 265 271 265 262 250 250 252 252 250 243 243 243 245 240 237 240 238 239 247 248
289 290 291 292 292 290 291 290 288 282 275 274 278 279 277 277 276 268 273 278 276 270 262 267 269 263 258 252 250 253 254 255 256 253 248 250 251 246 246 245 242 239 247
293 292 290 288 287 288 288 286 283 278 275 277 277 277 279 282 282 277 268 268 269 269 271 276 277 270 264 256 252 262 264 262 256 255 251 250 247 250 249 243 242 232 241
291 290 289 287 287 289 292 291 286 280 275 269 268 270 272 277 277 272 267 261 260 263 265 264 266 273 268 268 269 262 254 258 258 249 247 245 246 245 246 246 241 233 238
290 287 285 285 288 288 284 284 279 276 276 276 278 281 279 280 279 281 277 269 261 255 258 260 262 267 272 273 250 265 258 246 258 250 260 240 246 245 245 245 243 245 241
288 284 288 288 285 286 287 281 285 281 279 278 275 278 278 278 273 271 275 273 272 267 262 260 254 258 265 273 269 256 257 246 246 258 248 239 254 251 246 235 239 242 246
288 289 293 290 290 288 282 283 279 277 277 276 276 277 280 273 275 272 269 281 268 261 260 266 264 261 264 263 261 252 257 249 242 242 246 244 251 254 240 233 244 221 234
295 295 297 289 290 288 286 282 280 281 277 279 279 280 281 276 267 269 276 269 273 272 260 258 252 247 245 260 258 249 237 246 239 237 239 244 231 239 239 234 231 241 241
297 296 295 294 288 287 291 288 284 282 282 278 278 277 275 269 266 260 256 259 259 264 270 268 266 255 257 259 257 251 239 236 241 249 237 238 232 238 244 235 236 236 239
297 294 291 286 286 289 288 282 284 282 281 281 282 277 276 276 276 274 274 266 262 265 261 263 263 263 259 257 257 251 246 240 234 234 242 239 237 238 244 246 243 241 240
303 300 298 296 292 287 289 283 284 286 288 288 283 275 280 281 278 275 277 270 266 261 257 251 254 253 252 254 253 248 248 244 241 235 236 235 236 236 237 241 239 246 243
317 312 305 299 291 282 277 281 280 278 280 285 291 280 276 278 280 276 271 265 258 256 253 250 249 248 247 246 252 251 242 238 245 236 231 230 228 232 237 233 237 241 241
313 311 310 305 301 295 289 286 284 282 282 285 282 278 283 278 275 270 272 272 263 250 247 247 245 246 244 243 244 249 246 246 234 232 235 234 229 231 239 241 239 238 240
318 313 310 303 301 298 293 285 284 287 287 285 282 280 275 275 276 274 274 267 255 248 244 241 241 241 245 243 244 243 242 237 233 233 232 230 230 235 235 238 243 241 238
317 314 309 300 303 302 290 288 285 284 287 283 290 295 290 281 272 270 264 260 255 254 252 242 239 240 240 240 241 237 241 239 237 236 234 236 236 238 240 241 240 240 241
316 311 303 308 298 309 299 291 285 286 284 285 290 308 299 289 275 267 260 255 254 258 246 253 247 240 240 239 238 238 237 236 237 238 239 240 242 241 244 243 240 242 243
317 314 313 311 307 304 306 293 288 287 286 287 286 290 285 291 282 268 262 259 250 245 246 247 244 242 241 241 241 239 243 233 237 243 244 245 243 246 247 247 243 243 242
326 322 319 314 308 305 302 294 294 290 288 290 288 291 293 290 289 289 275 265 258 249 250 246 248 241 243 246 236 244 240 245 251 248 245 244 246 245 245 247 247 239 244
333 329 322 315 309 306 302 299 296 294 294 294 291 292 294 289 283 276 279 282 267 260 261 253 250 245 242 243 247 250 249 243 240 249 256 241 248 247 248 244 241 239 239